Year,Month,Day,Hour,Minute,Value (Times are PST for temperature in C)
2017,05,22,00,00,11.90
2017,05,22,00,01,11.80
2017,05,22,00,02,11.80
2017,05,22,00,03,11.80
2017,05,22,00,04,11.80
2017,05,22,00,05,11.80
2017,05,22,00,06,11.80
2017,05,22,00,07,11.80
2017,05,22,00,08,11.80
2017,05,22,00,09,11.80
2017,05,22,00,10,11.80
2017,05,22,00,11,11.80
2017,05,22,00,12,11.90
2017,05,22,00,13,12.00
2017,05,22,00,14,12.20
2017,05,22,00,15,12.30
2017,05,22,00,16,12.40
2017,05,22,00,17,12.50
2017,05,22,00,18,12.60
2017,05,22,00,19,12.70
2017,05,22,00,20,12.80
2017,05,22,00,21,12.90
2017,05,22,00,22,12.90
2017,05,22,00,23,13.00
2017,05,22,00,24,13.10
2017,05,22,00,25,13.30
2017,05,22,00,26,13.50
2017,05,22,00,27,13.60
2017,05,22,00,28,13.70
2017,05,22,00,29,13.90
2017,05,22,00,30,14.30
2017,05,22,00,31,14.50
2017,05,22,00,32,14.60
2017,05,22,00,33,14.70
2017,05,22,00,34,14.70
2017,05,22,00,35,14.80
2017,05,22,00,36,14.90
2017,05,22,00,37,15.10
2017,05,22,00,38,15.30
2017,05,22,00,39,15.50
2017,05,22,00,40,15.80
2017,05,22,00,41,16.00
2017,05,22,00,42,16.20
2017,05,22,00,43,16.40
2017,05,22,00,44,16.60
2017,05,22,00,45,16.80
2017,05,22,00,46,16.90
2017,05,22,00,47,17.00
2017,05,22,00,48,17.10
2017,05,22,00,49,17.10
2017,05,22,00,50,17.10
2017,05,22,00,51,17.10
2017,05,22,00,52,17.10
2017,05,22,00,53,17.10
2017,05,22,00,54,17.00
2017,05,22,00,55,16.90
2017,05,22,00,56,16.90
2017,05,22,00,57,16.80
2017,05,22,00,58,16.50
2017,05,22,00,59,16.30
2017,05,22,01,00,16.20
2017,05,22,01,01,16.20
2017,05,22,01,02,16.20
2017,05,22,01,03,15.90
2017,05,22,01,04,15.60
2017,05,22,01,05,15.40
2017,05,22,01,06,15.30
2017,05,22,01,07,15.30
2017,05,22,01,08,15.40
2017,05,22,01,09,15.40
2017,05,22,01,10,15.40
2017,05,22,01,11,15.40
2017,05,22,01,12,15.50
2017,05,22,01,13,15.60
2017,05,22,01,14,15.60
2017,05,22,01,15,15.60
2017,05,22,01,16,15.60
2017,05,22,01,17,15.50
2017,05,22,01,18,15.50
2017,05,22,01,19,15.60
2017,05,22,01,20,15.70
2017,05,22,01,21,15.80
2017,05,22,01,22,15.80
2017,05,22,01,23,15.90
2017,05,22,01,24,15.90
2017,05,22,01,25,15.90
2017,05,22,01,26,15.80
2017,05,22,01,27,15.80
2017,05,22,01,28,15.90
2017,05,22,01,29,15.90
2017,05,22,01,30,15.90
2017,05,22,01,31,15.80
2017,05,22,01,32,15.80
2017,05,22,01,33,15.80
2017,05,22,01,34,15.90
2017,05,22,01,35,16.00
2017,05,22,01,36,16.00
2017,05,22,01,37,16.10
2017,05,22,01,38,16.20
2017,05,22,01,39,16.30
2017,05,22,01,40,16.30
2017,05,22,01,41,16.30
2017,05,22,01,42,16.20
2017,05,22,01,43,16.20
2017,05,22,01,44,16.30
2017,05,22,01,45,16.30
2017,05,22,01,46,16.30
2017,05,22,01,47,16.30
2017,05,22,01,48,16.30
2017,05,22,01,49,16.40
2017,05,22,01,50,16.50
2017,05,22,01,51,16.40
2017,05,22,01,52,16.40
2017,05,22,01,53,16.30
2017,05,22,01,54,16.20
2017,05,22,01,55,16.20
2017,05,22,01,56,16.10
2017,05,22,01,57,16.10
2017,05,22,01,58,16.00
2017,05,22,01,59,15.90
2017,05,22,02,00,15.80
2017,05,22,02,01,15.80
2017,05,22,02,02,15.80
2017,05,22,02,03,15.80
2017,05,22,02,04,15.70
2017,05,22,02,05,15.70
2017,05,22,02,06,15.70
2017,05,22,02,07,15.70
2017,05,22,02,08,15.70
2017,05,22,02,09,15.70
2017,05,22,02,10,15.70
2017,05,22,02,11,15.70
2017,05,22,02,12,15.60
2017,05,22,02,13,15.60
2017,05,22,02,14,15.60
2017,05,22,02,15,15.60
2017,05,22,02,16,15.60
2017,05,22,02,17,15.60
2017,05,22,02,18,15.50
2017,05,22,02,19,15.50
2017,05,22,02,20,15.50
2017,05,22,02,21,15.50
2017,05,22,02,22,15.40
2017,05,22,02,23,15.20
2017,05,22,02,24,15.20
2017,05,22,02,25,15.20
2017,05,22,02,26,15.10
2017,05,22,02,27,15.00
2017,05,22,02,28,15.00
2017,05,22,02,29,15.00
2017,05,22,02,30,15.00
2017,05,22,02,31,14.90
2017,05,22,02,32,14.80
2017,05,22,02,33,14.70
2017,05,22,02,34,14.80
2017,05,22,02,35,14.80
2017,05,22,02,36,14.80
2017,05,22,02,37,14.80
2017,05,22,02,38,14.80
2017,05,22,02,39,14.90
2017,05,22,02,40,15.00
2017,05,22,02,41,15.10
2017,05,22,02,42,14.90
2017,05,22,02,43,14.80
2017,05,22,02,44,14.80
2017,05,22,02,45,14.80
2017,05,22,02,46,14.70
2017,05,22,02,47,14.60
2017,05,22,02,48,14.50
2017,05,22,02,49,14.40
2017,05,22,02,50,14.30
2017,05,22,02,51,14.10
2017,05,22,02,52,14.00
2017,05,22,02,53,13.90
2017,05,22,02,54,13.80
2017,05,22,02,55,13.80
2017,05,22,02,56,13.70
2017,05,22,02,57,13.70
2017,05,22,02,58,13.70
2017,05,22,02,59,13.70
2017,05,22,03,00,13.70
2017,05,22,03,01,13.70
2017,05,22,03,02,13.70
2017,05,22,03,03,13.60
2017,05,22,03,04,13.50
2017,05,22,03,05,13.40
2017,05,22,03,06,13.40
2017,05,22,03,07,13.30
2017,05,22,03,08,13.30
2017,05,22,03,09,13.20
2017,05,22,03,10,13.20
2017,05,22,03,11,13.10
2017,05,22,03,12,13.10
2017,05,22,03,13,13.10
2017,05,22,03,14,13.20
2017,05,22,03,15,13.20
2017,05,22,03,16,13.20
2017,05,22,03,17,13.20
2017,05,22,03,18,13.20
2017,05,22,03,19,13.20
2017,05,22,03,20,13.30
2017,05,22,03,21,13.30
2017,05,22,03,22,13.30
2017,05,22,03,23,13.40
2017,05,22,03,24,13.40
2017,05,22,03,25,13.40
2017,05,22,03,26,13.40
2017,05,22,03,27,13.40
2017,05,22,03,28,13.40
2017,05,22,03,29,13.50
2017,05,22,03,30,13.50
2017,05,22,03,31,13.60
2017,05,22,03,32,13.70
2017,05,22,03,33,13.70
2017,05,22,03,34,13.70
2017,05,22,03,35,13.70
2017,05,22,03,36,13.60
2017,05,22,03,37,13.50
2017,05,22,03,38,13.50
2017,05,22,03,39,13.40
2017,05,22,03,40,13.30
2017,05,22,03,41,13.30
2017,05,22,03,42,13.30
2017,05,22,03,43,13.30
2017,05,22,03,44,13.20
2017,05,22,03,45,13.20
2017,05,22,03,46,13.20
2017,05,22,03,47,13.20
2017,05,22,03,48,13.20
2017,05,22,03,49,13.20
2017,05,22,03,50,13.20
2017,05,22,03,51,13.20
2017,05,22,03,52,13.20
2017,05,22,03,53,13.20
2017,05,22,03,54,13.20
2017,05,22,03,55,13.20
2017,05,22,03,56,13.30
2017,05,22,03,57,13.30
2017,05,22,03,58,13.40
2017,05,22,03,59,13.40
2017,05,22,04,00,13.40
2017,05,22,04,01,13.50
2017,05,22,04,02,13.50
2017,05,22,04,03,13.50
2017,05,22,04,04,13.50
2017,05,22,04,05,13.50
2017,05,22,04,06,13.50
2017,05,22,04,07,13.50
2017,05,22,04,08,13.40
2017,05,22,04,09,13.30
2017,05,22,04,10,13.30
2017,05,22,04,11,13.20
2017,05,22,04,12,13.20
2017,05,22,04,13,13.00
2017,05,22,04,14,12.90
2017,05,22,04,15,12.70
2017,05,22,04,16,12.70
2017,05,22,04,17,12.60
2017,05,22,04,18,12.50
2017,05,22,04,19,12.40
2017,05,22,04,20,12.30
2017,05,22,04,21,12.30
2017,05,22,04,22,12.20
2017,05,22,04,23,12.20
2017,05,22,04,24,12.20
2017,05,22,04,25,12.20
2017,05,22,04,26,12.20
2017,05,22,04,27,12.30
2017,05,22,04,28,12.30
2017,05,22,04,29,12.30
2017,05,22,04,30,12.30
2017,05,22,04,31,12.30
2017,05,22,04,32,12.30
2017,05,22,04,33,12.40
2017,05,22,04,34,12.40
2017,05,22,04,35,12.50
2017,05,22,04,36,12.60
2017,05,22,04,37,12.60
2017,05,22,04,38,12.70
2017,05,22,04,39,12.70
2017,05,22,04,40,12.80
2017,05,22,04,41,12.90
2017,05,22,04,42,13.00
2017,05,22,04,43,13.10
2017,05,22,04,44,13.10
2017,05,22,04,45,13.20
2017,05,22,04,46,13.20
2017,05,22,04,47,13.30
2017,05,22,04,48,13.30
2017,05,22,04,49,13.30
2017,05,22,04,50,13.30
2017,05,22,04,51,13.30
2017,05,22,04,52,13.30
2017,05,22,04,53,13.30
2017,05,22,04,54,13.20
2017,05,22,04,55,13.20
2017,05,22,04,56,13.20
2017,05,22,04,57,13.20
2017,05,22,04,58,13.20
2017,05,22,04,59,13.20
2017,05,22,05,00,13.20
2017,05,22,05,01,13.30
2017,05,22,05,02,13.40
2017,05,22,05,03,13.40
2017,05,22,05,04,13.50
2017,05,22,05,05,13.50
2017,05,22,05,06,13.60
2017,05,22,05,07,13.60
2017,05,22,05,08,13.60
2017,05,22,05,09,13.70
2017,05,22,05,10,13.70
2017,05,22,05,11,13.80
2017,05,22,05,12,13.80
2017,05,22,05,13,13.90
2017,05,22,05,14,13.90
2017,05,22,05,15,13.90
2017,05,22,05,16,13.90
2017,05,22,05,17,13.80
2017,05,22,05,18,13.80
2017,05,22,05,19,13.80
2017,05,22,05,20,13.80
2017,05,22,05,21,13.90
2017,05,22,05,22,14.10
2017,05,22,05,23,14.30
2017,05,22,05,24,14.50
2017,05,22,05,25,14.80
2017,05,22,05,26,15.00
2017,05,22,05,27,15.20
2017,05,22,05,28,15.20
2017,05,22,05,29,15.20
2017,05,22,05,30,15.10
2017,05,22,05,31,15.00
2017,05,22,05,32,15.00
2017,05,22,05,33,15.00
2017,05,22,05,34,15.00
2017,05,22,05,35,14.70
2017,05,22,05,36,14.60
2017,05,22,05,37,14.50
2017,05,22,05,38,14.50
2017,05,22,05,39,14.40
2017,05,22,05,40,14.40
2017,05,22,05,41,14.30
2017,05,22,05,42,14.30
2017,05,22,05,43,14.20
2017,05,22,05,44,14.10
2017,05,22,05,45,14.00
2017,05,22,05,46,13.90
2017,05,22,05,47,13.90
2017,05,22,05,48,13.80
2017,05,22,05,49,13.80
2017,05,22,05,50,13.80
2017,05,22,05,51,13.90
2017,05,22,05,52,14.00
2017,05,22,05,53,14.10
2017,05,22,05,54,14.20
2017,05,22,05,55,14.20
2017,05,22,05,56,14.30
2017,05,22,05,57,14.40
2017,05,22,05,58,14.40
2017,05,22,05,59,14.50
2017,05,22,06,00,14.60
2017,05,22,06,01,14.60
2017,05,22,06,02,14.60
2017,05,22,06,03,14.70
2017,05,22,06,04,14.80
2017,05,22,06,05,14.80
2017,05,22,06,06,14.90
2017,05,22,06,07,14.90
2017,05,22,06,08,14.90
2017,05,22,06,09,14.90
2017,05,22,06,10,14.90
2017,05,22,06,11,15.00
2017,05,22,06,12,15.00
2017,05,22,06,13,15.10
2017,05,22,06,14,15.20
2017,05,22,06,15,15.20
2017,05,22,06,16,15.10
2017,05,22,06,17,15.10
2017,05,22,06,18,15.00
2017,05,22,06,19,15.00
2017,05,22,06,20,14.90
2017,05,22,06,21,14.90
2017,05,22,06,22,14.80
2017,05,22,06,23,14.80
2017,05,22,06,24,14.80
2017,05,22,06,25,14.80
2017,05,22,06,26,14.70
2017,05,22,06,27,14.70
2017,05,22,06,28,14.70
2017,05,22,06,29,14.70
2017,05,22,06,30,14.70
2017,05,22,06,31,14.70
2017,05,22,06,32,14.60
2017,05,22,06,33,14.50
2017,05,22,06,34,14.20
2017,05,22,06,35,14.00
2017,05,22,06,36,13.70
2017,05,22,06,37,13.60
2017,05,22,06,38,13.50
2017,05,22,06,39,13.50
2017,05,22,06,40,13.40
2017,05,22,06,41,13.40
2017,05,22,06,42,13.30
2017,05,22,06,43,13.30
2017,05,22,06,44,13.20
2017,05,22,06,45,13.20
2017,05,22,06,46,13.20
2017,05,22,06,47,13.10
2017,05,22,06,48,13.10
2017,05,22,06,49,13.10
2017,05,22,06,50,13.10
2017,05,22,06,51,13.10
2017,05,22,06,52,13.10
2017,05,22,06,53,13.10
2017,05,22,06,54,13.10
2017,05,22,06,55,13.10
2017,05,22,06,56,13.00
2017,05,22,06,57,13.00
2017,05,22,06,58,13.00
2017,05,22,06,59,13.00
2017,05,22,07,00,13.00
2017,05,22,07,01,12.90
2017,05,22,07,02,12.90
2017,05,22,07,03,12.90
2017,05,22,07,04,12.90
2017,05,22,07,05,12.80
2017,05,22,07,06,12.80
2017,05,22,07,07,12.80
2017,05,22,07,08,12.80
2017,05,22,07,09,12.80
2017,05,22,07,10,12.90
2017,05,22,07,11,12.90
2017,05,22,07,12,12.90
2017,05,22,07,13,13.00
2017,05,22,07,14,13.10
2017,05,22,07,15,13.10
2017,05,22,07,16,13.20
2017,05,22,07,17,13.30
2017,05,22,07,18,13.30
2017,05,22,07,19,13.40
2017,05,22,07,20,13.40
2017,05,22,07,21,13.50
2017,05,22,07,22,13.50
2017,05,22,07,23,13.50
2017,05,22,07,24,13.50
2017,05,22,07,25,13.50
2017,05,22,07,26,13.50
2017,05,22,07,27,13.40
2017,05,22,07,28,13.40
2017,05,22,07,29,13.40
2017,05,22,07,30,13.40
2017,05,22,07,31,13.30
2017,05,22,07,32,13.30
2017,05,22,07,33,13.30
2017,05,22,07,34,13.20
2017,05,22,07,35,13.20
2017,05,22,07,36,13.10
2017,05,22,07,37,13.00
2017,05,22,07,38,13.00
2017,05,22,07,39,13.00
2017,05,22,07,40,13.00
2017,05,22,07,41,13.00
2017,05,22,07,42,12.90
2017,05,22,07,43,12.90
2017,05,22,07,44,12.80
2017,05,22,07,45,12.80
2017,05,22,07,46,12.80
2017,05,22,07,47,12.80
2017,05,22,07,48,12.80
2017,05,22,07,49,12.90
2017,05,22,07,50,12.90
2017,05,22,07,51,13.00
2017,05,22,07,52,13.10
2017,05,22,07,53,13.20
2017,05,22,07,54,13.30
2017,05,22,07,55,13.40
2017,05,22,07,56,13.50
2017,05,22,07,57,13.60
2017,05,22,07,58,13.70
2017,05,22,07,59,13.70
2017,05,22,08,00,13.70
2017,05,22,08,01,13.70
2017,05,22,08,02,13.60
2017,05,22,08,03,13.60
2017,05,22,08,04,13.60
2017,05,22,08,05,13.50
2017,05,22,08,06,13.50
2017,05,22,08,07,13.50
2017,05,22,08,08,13.50
2017,05,22,08,09,13.40
2017,05,22,08,10,13.40
2017,05,22,08,11,13.50
2017,05,22,08,12,13.50
2017,05,22,08,13,13.50
2017,05,22,08,14,13.60
2017,05,22,08,15,13.60
2017,05,22,08,16,13.60
2017,05,22,08,17,13.50
2017,05,22,08,18,13.50
2017,05,22,08,19,13.40
2017,05,22,08,20,13.40
2017,05,22,08,21,13.30
2017,05,22,08,22,13.30
2017,05,22,08,23,13.30
2017,05,22,08,24,13.30
2017,05,22,08,25,13.30
2017,05,22,08,26,13.40
2017,05,22,08,27,13.50
2017,05,22,08,28,13.50
2017,05,22,08,29,13.60
2017,05,22,08,30,13.70
2017,05,22,08,31,13.80
2017,05,22,08,32,13.90
2017,05,22,08,33,13.90
2017,05,22,08,34,14.00
2017,05,22,08,35,14.10
2017,05,22,08,36,14.10
2017,05,22,08,37,14.20
2017,05,22,08,38,14.20
2017,05,22,08,39,14.20
2017,05,22,08,40,14.30
2017,05,22,08,41,14.30
2017,05,22,08,42,14.40
2017,05,22,08,43,14.40
2017,05,22,08,44,14.40
2017,05,22,08,45,14.50
2017,05,22,08,46,14.50
2017,05,22,08,47,14.60
2017,05,22,08,48,14.60
2017,05,22,08,49,14.60
2017,05,22,08,50,14.60
2017,05,22,08,51,14.70
2017,05,22,08,52,14.70
2017,05,22,08,53,14.70
2017,05,22,08,54,14.70
2017,05,22,08,55,14.70
2017,05,22,08,56,14.70
2017,05,22,08,57,14.70
2017,05,22,08,58,14.70
2017,05,22,08,59,14.70
2017,05,22,09,00,14.70
2017,05,22,09,01,14.70
2017,05,22,09,02,14.70
2017,05,22,09,03,14.70
2017,05,22,09,04,14.80
2017,05,22,09,05,14.80
2017,05,22,09,06,14.80
2017,05,22,09,07,14.80
2017,05,22,09,08,14.80
2017,05,22,09,09,14.80
2017,05,22,09,10,14.80
2017,05,22,09,11,14.80
2017,05,22,09,12,14.80
2017,05,22,09,13,14.80
2017,05,22,09,14,14.80
2017,05,22,09,15,14.90
2017,05,22,09,16,14.90
2017,05,22,09,17,15.00
2017,05,22,09,18,15.20
2017,05,22,09,19,15.30
2017,05,22,09,20,15.50
2017,05,22,09,21,15.50
2017,05,22,09,22,15.70
2017,05,22,09,23,15.90
2017,05,22,09,24,16.00
2017,05,22,09,25,16.10
2017,05,22,09,26,16.10
2017,05,22,09,27,16.20
2017,05,22,09,28,16.30
2017,05,22,09,29,16.30
2017,05,22,09,30,16.30
2017,05,22,09,31,16.40
2017,05,22,09,32,16.40
2017,05,22,09,33,16.30
2017,05,22,09,34,16.10
2017,05,22,09,35,16.10
2017,05,22,09,36,16.20
2017,05,22,09,37,16.40
2017,05,22,09,38,16.50
2017,05,22,09,39,16.60
2017,05,22,09,40,16.60
2017,05,22,09,41,16.60
2017,05,22,09,42,16.60
2017,05,22,09,43,16.60
2017,05,22,09,44,16.60
2017,05,22,09,45,16.60
2017,05,22,09,46,16.60
2017,05,22,09,47,16.60
2017,05,22,09,48,16.60
2017,05,22,09,49,16.60
2017,05,22,09,50,16.60
2017,05,22,09,51,16.60
2017,05,22,09,52,16.70
2017,05,22,09,53,16.70
2017,05,22,09,54,16.70
2017,05,22,09,55,16.70
2017,05,22,09,56,16.70
2017,05,22,09,57,16.70
2017,05,22,09,58,16.70
2017,05,22,09,59,16.70
2017,05,22,10,00,16.70
2017,05,22,10,01,16.70
2017,05,22,10,02,16.70
2017,05,22,10,03,16.70
2017,05,22,10,04,16.70
2017,05,22,10,05,16.70
2017,05,22,10,06,16.70
2017,05,22,10,07,16.70
2017,05,22,10,08,16.70
2017,05,22,10,09,16.70
2017,05,22,10,10,16.80
2017,05,22,10,11,16.80
2017,05,22,10,12,16.80
2017,05,22,10,13,16.90
2017,05,22,10,14,17.00
2017,05,22,10,15,17.00
2017,05,22,10,16,17.10
2017,05,22,10,17,17.10
2017,05,22,10,18,17.10
2017,05,22,10,19,17.10
2017,05,22,10,20,17.10
2017,05,22,10,21,17.00
2017,05,22,10,22,17.00
2017,05,22,10,23,16.90
2017,05,22,10,24,16.90
2017,05,22,10,25,16.90
2017,05,22,10,26,16.90
2017,05,22,10,27,16.90
2017,05,22,10,28,16.90
2017,05,22,10,29,16.90
2017,05,22,10,30,16.90
2017,05,22,10,31,16.90
2017,05,22,10,32,16.90
2017,05,22,10,33,16.90
2017,05,22,10,34,16.90
2017,05,22,10,35,16.90
2017,05,22,10,36,17.00
2017,05,22,10,37,17.00
2017,05,22,10,38,17.00
2017,05,22,10,39,17.00
2017,05,22,10,40,17.10
2017,05,22,10,41,17.10
2017,05,22,10,42,17.00
2017,05,22,10,43,17.00
2017,05,22,10,44,17.00
2017,05,22,10,45,17.00
2017,05,22,10,46,17.00
2017,05,22,10,47,17.00
2017,05,22,10,48,17.00
2017,05,22,10,49,17.00
2017,05,22,10,50,17.00
2017,05,22,10,51,16.80
2017,05,22,10,52,16.80
2017,05,22,10,53,16.80
2017,05,22,10,54,16.80
2017,05,22,10,55,16.80
2017,05,22,10,56,16.80
2017,05,22,10,57,16.80
2017,05,22,10,58,16.80
2017,05,22,10,59,16.80
2017,05,22,11,00,16.80
2017,05,22,11,01,16.90
2017,05,22,11,02,16.90
2017,05,22,11,03,17.00
2017,05,22,11,04,17.00
2017,05,22,11,05,17.10
2017,05,22,11,06,17.20
2017,05,22,11,07,17.20
2017,05,22,11,08,17.20
2017,05,22,11,09,17.10
2017,05,22,11,10,17.00
2017,05,22,11,11,16.90
2017,05,22,11,12,16.90
2017,05,22,11,13,16.90
2017,05,22,11,14,16.80
2017,05,22,11,15,16.90
2017,05,22,11,16,16.90
2017,05,22,11,17,17.00
2017,05,22,11,18,17.10
2017,05,22,11,19,17.10
2017,05,22,11,20,17.10
2017,05,22,11,21,17.20
2017,05,22,11,22,17.20
2017,05,22,11,23,17.20
2017,05,22,11,24,17.20
2017,05,22,11,25,17.20
2017,05,22,11,26,17.30
2017,05,22,11,27,17.30
2017,05,22,11,28,17.30
2017,05,22,11,29,17.40
2017,05,22,11,30,17.40
2017,05,22,11,31,17.40
2017,05,22,11,32,17.40
2017,05,22,11,33,17.40
2017,05,22,11,34,17.40
2017,05,22,11,35,17.40
2017,05,22,11,36,17.50
2017,05,22,11,37,17.50
2017,05,22,11,38,17.60
2017,05,22,11,39,17.70
2017,05,22,11,40,17.70
2017,05,22,11,41,17.80
2017,05,22,11,42,17.80
2017,05,22,11,43,17.80
2017,05,22,11,44,17.90
2017,05,22,11,45,18.00
2017,05,22,11,46,18.00
2017,05,22,11,47,17.90
2017,05,22,11,48,17.90
2017,05,22,11,49,17.90
2017,05,22,11,50,18.00
2017,05,22,11,51,18.00
2017,05,22,11,52,18.10
2017,05,22,11,53,18.10
2017,05,22,11,54,18.10
2017,05,22,11,55,18.10
2017,05,22,11,56,18.10
2017,05,22,11,57,18.10
2017,05,22,11,58,18.10
2017,05,22,11,59,18.10
2017,05,22,12,00,18.10
2017,05,22,12,01,18.10
2017,05,22,12,02,18.00
2017,05,22,12,03,18.00
2017,05,22,12,04,18.00
2017,05,22,12,05,18.00
2017,05,22,12,06,18.00
2017,05,22,12,07,18.00
2017,05,22,12,08,18.10
2017,05,22,12,09,18.10
2017,05,22,12,10,18.20
2017,05,22,12,11,18.30
2017,05,22,12,12,18.30
2017,05,22,12,13,18.30
2017,05,22,12,14,18.30
2017,05,22,12,15,18.30
2017,05,22,12,16,18.30
2017,05,22,12,17,18.30
2017,05,22,12,18,18.30
2017,05,22,12,19,18.10
2017,05,22,12,20,17.90
2017,05,22,12,21,17.80
2017,05,22,12,22,17.80
2017,05,22,12,23,17.80
2017,05,22,12,24,17.90
2017,05,22,12,25,18.00
2017,05,22,12,26,18.00
2017,05,22,12,27,18.10
2017,05,22,12,28,18.20
2017,05,22,12,29,18.20
2017,05,22,12,30,18.20
2017,05,22,12,31,18.20
2017,05,22,12,32,18.20
2017,05,22,12,33,18.20
2017,05,22,12,34,18.20
2017,05,22,12,35,18.20
2017,05,22,12,36,18.20
2017,05,22,12,37,18.20
2017,05,22,12,38,18.30
2017,05,22,12,39,18.30
2017,05,22,12,40,18.30
2017,05,22,12,41,18.20
2017,05,22,12,42,18.20
2017,05,22,12,43,18.30
2017,05,22,12,44,18.30
2017,05,22,12,45,18.30
2017,05,22,12,46,18.40
2017,05,22,12,47,18.50
2017,05,22,12,48,18.50
2017,05,22,12,49,18.60
2017,05,22,12,50,18.50
2017,05,22,12,51,18.10
2017,05,22,12,52,17.60
2017,05,22,12,53,17.10
2017,05,22,12,54,16.80
2017,05,22,12,55,16.60
2017,05,22,12,56,16.40
2017,05,22,12,57,16.10
2017,05,22,12,58,15.90
2017,05,22,12,59,15.80
2017,05,22,13,00,15.70
2017,05,22,13,01,15.70
2017,05,22,13,02,15.60
2017,05,22,13,03,15.60
2017,05,22,13,04,15.60
2017,05,22,13,05,15.70
2017,05,22,13,06,15.70
2017,05,22,13,07,15.70
2017,05,22,13,08,15.70
2017,05,22,13,09,15.70
2017,05,22,13,10,15.80
2017,05,22,13,11,15.90
2017,05,22,13,12,16.10
2017,05,22,13,13,16.20
2017,05,22,13,14,16.20
2017,05,22,13,15,16.30
2017,05,22,13,16,16.40
2017,05,22,13,17,16.50
2017,05,22,13,18,16.60
2017,05,22,13,19,16.60
2017,05,22,13,20,16.70
2017,05,22,13,21,16.60
2017,05,22,13,22,16.60
2017,05,22,13,23,16.70
2017,05,22,13,24,16.60
2017,05,22,13,25,16.60
2017,05,22,13,26,16.50
2017,05,22,13,27,16.50
2017,05,22,13,28,16.40
2017,05,22,13,29,16.40
2017,05,22,13,30,16.40
2017,05,22,13,31,16.40
2017,05,22,13,32,16.40
2017,05,22,13,33,16.40
2017,05,22,13,34,16.30
2017,05,22,13,35,16.30
2017,05,22,13,36,16.30
2017,05,22,13,37,16.20
2017,05,22,13,38,16.20
2017,05,22,13,39,16.10
2017,05,22,13,40,16.20
2017,05,22,13,41,16.20
2017,05,22,13,42,16.20
2017,05,22,13,43,16.30
2017,05,22,13,44,16.30
2017,05,22,13,45,16.30
2017,05,22,13,46,16.40
2017,05,22,13,47,16.40
2017,05,22,13,48,16.40
2017,05,22,13,49,16.40
2017,05,22,13,50,16.50
2017,05,22,13,51,16.50
2017,05,22,13,52,16.50
2017,05,22,13,53,16.60
2017,05,22,13,54,16.60
2017,05,22,13,55,16.60
2017,05,22,13,56,16.60
2017,05,22,13,57,16.60
2017,05,22,13,58,16.60
2017,05,22,13,59,16.50
2017,05,22,14,00,16.60
2017,05,22,14,01,16.60
2017,05,22,14,02,16.80
2017,05,22,14,03,16.90
2017,05,22,14,04,17.20
2017,05,22,14,05,17.40
2017,05,22,14,06,17.60
2017,05,22,14,07,17.70
2017,05,22,14,08,17.90
2017,05,22,14,09,18.00
2017,05,22,14,10,18.10
2017,05,22,14,11,18.20
2017,05,22,14,12,18.30
2017,05,22,14,13,18.40
2017,05,22,14,14,18.50
2017,05,22,14,15,18.70
2017,05,22,14,16,18.80
2017,05,22,14,17,19.00
2017,05,22,14,18,19.10
2017,05,22,14,19,19.20
2017,05,22,14,20,19.20
2017,05,22,14,21,19.10
2017,05,22,14,22,18.80
2017,05,22,14,23,18.50
2017,05,22,14,24,18.10
2017,05,22,14,25,17.80
2017,05,22,14,26,17.40
2017,05,22,14,27,17.10
2017,05,22,14,28,16.90
2017,05,22,14,29,16.80
2017,05,22,14,30,16.80
2017,05,22,14,31,16.70
2017,05,22,14,32,16.70
2017,05,22,14,33,16.60
2017,05,22,14,34,16.50
2017,05,22,14,35,16.50
2017,05,22,14,36,16.40
2017,05,22,14,37,16.40
2017,05,22,14,38,16.40
2017,05,22,14,39,16.50
2017,05,22,14,40,16.60
2017,05,22,14,41,16.60
2017,05,22,14,42,16.60
2017,05,22,14,43,16.60
2017,05,22,14,44,16.60
2017,05,22,14,45,16.50
2017,05,22,14,46,16.40
2017,05,22,14,47,16.30
2017,05,22,14,48,16.30
2017,05,22,14,49,16.20
2017,05,22,14,50,16.20
2017,05,22,14,51,16.30
2017,05,22,14,52,16.40
2017,05,22,14,53,16.40
2017,05,22,14,54,16.40
2017,05,22,14,55,16.30
2017,05,22,14,56,16.30
2017,05,22,14,57,16.20
2017,05,22,14,58,16.10
2017,05,22,14,59,16.00
2017,05,22,15,00,15.90
2017,05,22,15,01,15.90
2017,05,22,15,02,15.90
2017,05,22,15,03,15.90
2017,05,22,15,04,15.90
2017,05,22,15,05,16.00
2017,05,22,15,06,16.10
2017,05,22,15,07,16.10
2017,05,22,15,08,16.20
2017,05,22,15,09,16.40
2017,05,22,15,10,16.50
2017,05,22,15,11,16.60
2017,05,22,15,12,16.70
2017,05,22,15,13,16.80
2017,05,22,15,14,16.80
2017,05,22,15,15,16.80
2017,05,22,15,16,16.80
2017,05,22,15,17,16.90
2017,05,22,15,18,17.00
2017,05,22,15,19,17.10
2017,05,22,15,20,17.20
2017,05,22,15,21,17.30
2017,05,22,15,22,17.40
2017,05,22,15,23,17.40
2017,05,22,15,24,17.50
2017,05,22,15,25,17.50
2017,05,22,15,26,17.50
2017,05,22,15,27,17.60
2017,05,22,15,28,17.60
2017,05,22,15,29,17.60
2017,05,22,15,30,17.70
2017,05,22,15,31,17.60
2017,05,22,15,32,17.60
2017,05,22,15,33,17.50
2017,05,22,15,34,17.40
2017,05,22,15,35,17.30
2017,05,22,15,36,17.30
2017,05,22,15,37,17.30
2017,05,22,15,38,17.40
2017,05,22,15,39,17.50
2017,05,22,15,40,17.60
2017,05,22,15,41,17.50
2017,05,22,15,42,17.40
2017,05,22,15,43,17.30
2017,05,22,15,44,17.10
2017,05,22,15,45,17.00
2017,05,22,15,46,16.90
2017,05,22,15,47,17.00
2017,05,22,15,48,17.10
2017,05,22,15,49,17.10
2017,05,22,15,50,16.90
2017,05,22,15,51,16.70
2017,05,22,15,52,16.50
2017,05,22,15,53,16.20
2017,05,22,15,54,16.10
2017,05,22,15,55,15.90
2017,05,22,15,56,15.90
2017,05,22,15,57,15.80
2017,05,22,15,58,15.70
2017,05,22,15,59,15.60
2017,05,22,16,00,15.40
2017,05,22,16,01,15.30
2017,05,22,16,02,15.20
2017,05,22,16,03,15.20
2017,05,22,16,04,15.10
2017,05,22,16,05,15.10
2017,05,22,16,06,15.10
2017,05,22,16,07,15.00
2017,05,22,16,08,15.10
2017,05,22,16,09,15.10
2017,05,22,16,10,15.10
2017,05,22,16,11,15.10
2017,05,22,16,12,15.10
2017,05,22,16,13,15.10
2017,05,22,16,14,15.00
2017,05,22,16,15,14.90
2017,05,22,16,16,14.90
2017,05,22,16,17,14.90
2017,05,22,16,18,14.90
2017,05,22,16,19,14.90
2017,05,22,16,20,14.90
2017,05,22,16,21,15.00
2017,05,22,16,22,15.00
2017,05,22,16,23,15.00
2017,05,22,16,24,15.00
2017,05,22,16,25,15.00
2017,05,22,16,26,15.10
2017,05,22,16,27,15.10
2017,05,22,16,28,15.10
2017,05,22,16,29,15.10
2017,05,22,16,30,15.10
2017,05,22,16,31,15.20
2017,05,22,16,32,15.20
2017,05,22,16,33,15.30
2017,05,22,16,34,15.30
2017,05,22,16,35,15.30
2017,05,22,16,36,15.30
2017,05,22,16,37,15.40
2017,05,22,16,38,15.40
2017,05,22,16,39,15.40
2017,05,22,16,40,15.50
2017,05,22,16,41,15.50
2017,05,22,16,42,15.50
2017,05,22,16,43,15.60
2017,05,22,16,44,15.60
2017,05,22,16,45,15.70
2017,05,22,16,46,15.80
2017,05,22,16,47,15.80
2017,05,22,16,48,15.90
2017,05,22,16,49,15.90
2017,05,22,16,50,15.90
2017,05,22,16,51,15.90
2017,05,22,16,52,15.90
2017,05,22,16,53,15.90
2017,05,22,16,54,15.90
2017,05,22,16,55,15.90
2017,05,22,16,56,16.00
2017,05,22,16,57,16.10
2017,05,22,16,58,16.20
2017,05,22,16,59,16.30
2017,05,22,17,00,16.40
2017,05,22,17,01,16.50
2017,05,22,17,02,16.50
2017,05,22,17,03,16.60
2017,05,22,17,04,16.60
2017,05,22,17,05,16.60
2017,05,22,17,06,16.60
2017,05,22,17,07,16.60
2017,05,22,17,08,16.60
2017,05,22,17,09,16.60
2017,05,22,17,10,16.60
2017,05,22,17,11,16.70
2017,05,22,17,12,16.70
2017,05,22,17,13,16.70
2017,05,22,17,14,16.70
2017,05,22,17,15,16.70
2017,05,22,17,16,16.60
2017,05,22,17,17,16.60
2017,05,22,17,18,16.60
2017,05,22,17,19,16.70